Location: Warner Observatory
(35.1353°N, 89.5455°W)
Time: 16:04:06
(UTC-05:00)

Amateur Radio Satellites - All Passes

Search period start: 05 July 2015 15:34
Search period end: 06 July 2015 15:34
Location: Warner Observatory, 35.1353°N, 89.5455°W

Satellite Date Start Highest point End Downlink Frequencies (MHz)
Time Altitude Azimuth
ISS 05 Jul 15:34:13 15:37:19 44° 226° (SW) 15:40:24 145.825
ITAMSAT 1 05 Jul 15:42:20 15:46:33 24° 266° (W) 15:50:38 435.822/435.867
Gurwin Techsat 1B 05 Jul 15:42:50 15:47:05 23° 266° (W) 15:51:11 435.225
JUGNU 05 Jul 15:44:05 15:46:42 13° 168° (SSE) 15:49:24 437.505
Cosmos 2491 05 Jul 15:46:50 15:55:42 85° 278° (W) 16:04:33 435.465 / 435.565
BEESAT 05 Jul 16:13:06 16:15:22 13° 294° (WNW) 16:17:22 436.000
BEESAT 3 05 Jul 16:16:59 16:20:59 56° 58° (ENE) 16:24:53 437.485
AIST 1 05 Jul 16:18:14 16:22:27 43° 281° (W) 16:26:39
STARS 05 Jul 16:18:57 16:23:21 86° 102° (ESE) 16:27:43 437.465
AIST 2 05 Jul 16:20:37 16:22:28 13° 46° (NE) 16:24:29 435.215
SO-50 05 Jul 16:24:51 16:29:26 58° 116° (ESE) 16:34:12 436.795
Cosmos 2504 05 Jul 16:28:59 16:35:43 35° 75° (ENE) 16:43:01 435.465 / 435.565
O/OREOS (USA 219) 05 Jul 16:30:38 16:33:15 15° 58° (ENE) 16:36:04 437.305
PCSat 05 Jul 16:30:45 16:35:41 35° 304° (WNW) 16:40:38 145.827
BEESAT 2 05 Jul 16:30:49 16:34:52 63° 59° (ENE) 16:38:50 435.950
AO-7 05 Jul 16:38:16 16:46:30 62° 257° (WSW) 16:54:47 29.400- 29.500
HORYU 2 05 Jul 17:03:44 17:06:59 19° 266° (W) 17:10:06 437.375
KKS-1 05 Jul 17:07:34 17:10:26 17° 292° (WNW) 17:13:09 437.445
JAS-2 05 Jul 17:13:55 17:16:27 13° 271° (W) 17:18:42 435.910
Cubesat XI-IV 05 Jul 17:21:50 17:25:16 18° 66° (ENE) 17:28:56 437.490
JUGNU 05 Jul 17:31:07 17:35:01 18° 178° (S) 17:38:56 437.505
MOZHAYETS 4 05 Jul 17:31:56 17:36:37 87° 102° (ESE) 17:41:16
Cosmos 2491 05 Jul 17:49:21 17:54:09 15° 298° (WNW) 17:58:17 435.465 / 435.565
AIST 2 05 Jul 17:57:21 18:01:29 59° 244° (WSW) 18:05:30 435.215
CUBESAT XI-V 05 Jul 18:03:56 18:06:04 13° 90° (E) 18:08:27 437.345
SO-50 05 Jul 18:07:16 18:10:25 17° 314° (NW) 18:13:29 436.795
O/OREOS (USA 219) 05 Jul 18:08:38 18:12:58 44° 254° (WSW) 18:17:17 437.305
Cosmos 2504 05 Jul 18:20:54 18:27:58 41° 270° (W) 18:35:22 435.465 / 435.565
CUTE-I 05 Jul 18:25:01 18:30:21 74° 76° (ENE) 18:35:44 437.470
SRMSAT 05 Jul 18:25:52 18:29:24 16° 173° (S) 18:32:59 437.500
Cubesat XI-IV 05 Jul 18:59:48 19:05:00 51° 260° (W) 19:10:15 437.490
DANDE 05 Jul 19:01:10 19:03:10 19° 75° (ENE) 19:05:10 436.750
JUGNU 05 Jul 19:19:51 19:23:21 16° 188° (S) 19:26:48 437.505
PRISM 05 Jul 19:19:53 19:23:19 25° 96° (E) 19:26:47 437.425
BRITE-PL 05 Jul 19:20:35 19:25:10 29° 72° (ENE) 19:29:38 437.365/2234.400
STRAND 1 05 Jul 19:27:40 19:32:22 36° 97° (E) 19:37:05 437.568
CUSAT 1 05 Jul 19:30:01 19:32:32 48° 263° (W) 19:35:10 437.405
DOVE 4 05 Jul 19:30:36 19:31:55 11° 68° (ENE) 19:33:30 437.250
HO-68 05 Jul 19:31:35 19:36:50 24° 63° (ENE) 19:42:19 435.675
CUBESAT XI-V 05 Jul 19:39:20 19:43:52 49° 286° (WNW) 19:48:20 437.345
GONETS M04 05 Jul 20:06:27 20:14:51 52° 78° (ENE) 20:23:16
CINEMA 3 05 Jul 20:06:40 20:07:49 11° 68° (ENE) 20:09:15 145.822/145.860
CUTE-I 05 Jul 20:09:17 20:11:05 11° 271° (W) 20:12:29 437.470
SEEDS 05 Jul 20:10:31 20:13:25 19° 70° (ENE) 20:16:27 437.485
SRMSAT 05 Jul 20:14:03 20:17:53 18° 183° (S) 20:21:41 437.500
AAUSAT CUBESAT 2 05 Jul 20:18:45 20:21:09 16° 69° (ENE) 20:23:42 437.432
GOMX 1 05 Jul 20:26:39 20:31:52 80° 77° (ENE) 20:36:45 467.674
COMPASS 1 05 Jul 20:44:30 20:48:19 37° 74° (ENE) 20:52:11 437.405
CUBEBUG 2 05 Jul 20:45:00 20:47:00 14° 69° (ENE) 20:49:11 437.445
Oscar 11 05 Jul 20:46:31 20:48:53 15° 69° (ENE) 20:51:27 145.826/435.025
PRISM 05 Jul 20:55:21 20:58:38 22° 290° (WNW) 21:01:49 437.425
CUTE 1.7 + AOD 2 05 Jul 20:58:39 21:02:52 87° 258° (WSW) 21:07:06 437.475
BRITE-PL 05 Jul 20:58:42 21:03:36 31° 264° (W) 21:08:11 437.365/2234.400
CANX-2 05 Jul 21:02:16 21:06:27 69° 259° (W) 21:10:40 2200.000
DOVE 4 05 Jul 21:04:24 21:09:19 66° 260° (W) 21:13:56 437.250
STRAND 1 05 Jul 21:07:20 21:11:24 23° 292° (WNW) 21:15:17 437.568
FUNcube-1 05 Jul 21:15:56 21:18:40 18° 70° (ENE) 21:21:32 145.935
Cosmos 2499 05 Jul 21:16:11 21:22:56 31° 73° (ENE) 21:30:18 435.465 / 435.565
HO-68 05 Jul 21:17:04 21:24:07 60° 258° (WSW) 21:31:10 435.675
AUBIESAT-1 05 Jul 21:20:12 21:24:11 34° 103° (ESE) 21:28:23 437.475
UWE-3 05 Jul 21:31:05 21:34:58 36° 74° (ENE) 21:38:49 435.000/436.395/437.385
CINEMA 3 05 Jul 21:40:12 21:44:41 57° 260° (W) 21:48:59 145.822/145.860
SEEDS 05 Jul 21:45:23 21:49:03 28° 264° (W) 21:52:40 437.485
AAUSAT CUBESAT 2 05 Jul 21:52:41 21:56:28 35° 263° (W) 22:00:17 437.432
M-CUBED/EXP-1 PRIME 05 Jul 21:55:33 21:59:53 80° 288° (WNW) 22:04:30 437.505
DELFI C3 05 Jul 21:58:03 22:02:02 73° 76° (ENE) 22:06:03 145.870
VELOX 1 05 Jul 21:58:40 21:59:42 11° 66° (ENE) 22:01:01 145.980
DX 1 05 Jul 22:00:10 22:03:29 22° 70° (ENE) 22:06:54 434.975-435.025
SRMSAT 05 Jul 22:04:02 22:06:20 12° 193° (SSW) 22:08:32 437.500
GONETS M04 05 Jul 22:04:05 22:11:20 29° 274° (W) 22:18:16
ZACube-1 05 Jul 22:14:59 22:19:12 85° 257° (WSW) 22:23:23 437.345
UKube-1 05 Jul 22:18:18 22:22:07 32° 72° (ENE) 22:26:00 .
CUBEBUG 2 05 Jul 22:19:17 22:23:24 43° 261° (W) 22:27:25 437.445
Oscar 11 05 Jul 22:20:44 22:24:46 39° 262° (W) 22:28:49 145.826/435.025
COMPASS 1 05 Jul 22:21:53 22:24:11 14° 269° (W) 22:26:17 437.405
HUMSAT D 05 Jul 22:22:09 22:26:03 44° 74° (ENE) 22:29:58 437.325/437.525
AISAT 05 Jul 22:42:56 22:47:01 37° 73° (ENE) 22:51:09 437.250
ANTELSAT 05 Jul 22:48:17 22:51:53 24° 95° (E) 22:55:37 437.575/2403.000
FUNcube-1 05 Jul 22:51:04 22:54:49 31° 263° (W) 22:58:30 145.935
AUBIESAT-1 05 Jul 22:55:26 22:58:43 21° 294° (WNW) 23:02:01 437.475
CUBEBUG 1 05 Jul 22:56:33 23:00:13 27° 71° (ENE) 23:03:58 437.445
TIGRISAT 05 Jul 22:59:42 23:03:37 32° 97° (E) 23:07:40 435.000
POLYITAN 1 05 Jul 23:01:29 23:03:05 12° 91° (E) 23:04:56 437.675
Cosmos 2499 05 Jul 23:08:41 23:16:20 49° 269° (W) 23:24:25 435.465 / 435.565
UWE-3 05 Jul 23:09:08 23:11:40 15° 268° (W) 23:13:59 435.000/436.395/437.385
ESTCUBE 1 05 Jul 23:19:59 23:24:26 60° 75° (ENE) 23:28:56 437.505/2401.250
QB50P2 05 Jul 23:29:17 23:32:53 28° 96° (E) 23:36:32 145.880/145.840
50 SAT 05 Jul 23:29:18 23:33:01 49° 260° (W) 23:36:45 437.505
POPSAT HIP 1 05 Jul 23:29:39 23:33:12 27° 96° (E) 23:36:48 437.405
VELOX 1 05 Jul 23:31:22 23:35:47 62° 259° (WSW) 23:40:14 145.980
DX 1 05 Jul 23:35:48 23:39:36 28° 264° (W) 23:43:20 434.975-435.025
UNISAT 6 05 Jul 23:39:43 23:44:08 82° 282° (WNW) 23:48:39 437.425
PCSat 05 Jul 23:40:01 23:42:23 13° 45° (NE) 23:45:00 145.827
SPROUT 05 Jul 23:52:38 23:56:23 30° 72° (ENE) 00:00:11 437.525
UKube-1 05 Jul 23:55:13 23:58:20 18° 266° (W) 00:01:18 .
HUMSAT D 06 Jul 00:00:38 00:02:05 11° 270° (W) 00:03:17 437.325/437.525
QB50P1 06 Jul 00:07:59 00:12:13 83° 105° (ESE) 00:16:25 145.935-145.965
AISAT 06 Jul 00:20:46 00:23:45 17° 267° (W) 00:26:34 437.250
NANOSAT C BR1 06 Jul 00:21:37 00:25:49 67° 283° (WNW) 00:29:58 145.865
ANTELSAT 06 Jul 00:24:56 00:28:36 25° 289° (WNW) 00:32:15 437.575/2403.000
TISAT 1 06 Jul 00:27:44 00:31:51 51° 75° (ENE) 00:35:59 437.305
DUCHIFAT 1 06 Jul 00:28:04 00:32:12 57° 284° (WNW) 00:36:17 145.980
CUBEBUG 1 06 Jul 00:32:57 00:36:33 23° 265° (W) 00:40:02 437.445
POLYITAN 1 06 Jul 00:35:15 00:39:16 44° 286° (WNW) 00:43:16 437.675
TIGRISAT 06 Jul 00:36:58 00:40:12 20° 290° (WNW) 00:43:21 435.000
BUGSAT 1 06 Jul 00:38:12 00:42:13 67° 283° (WNW) 00:46:11 437.445
SO-50 06 Jul 00:59:52 01:03:53 25° 50° (NE) 01:07:55 436.795
ESTCUBE 1 06 Jul 01:00:50 01:01:46 10° 271° (W) 01:02:22 437.505/2401.250
QB50P2 06 Jul 01:05:28 01:08:37 20° 290° (WNW) 01:11:40 145.880/145.840
POPSAT HIP 1 06 Jul 01:05:45 01:08:57 21° 289° (WNW) 01:12:00 437.405
RS-15 06 Jul 01:07:39 01:16:54 36° 107° (ESE) 01:26:38 29.354- 29.394
PCSat 06 Jul 01:21:10 01:26:37 87° 249° (WSW) 01:32:02 145.827
SPROUT 06 Jul 01:29:24 01:32:32 19° 267° (W) 01:35:32 437.525
BEESAT 06 Jul 01:36:31 01:41:03 47° 74° (ENE) 01:45:40 436.000
SWISSCUBE 06 Jul 01:52:07 01:56:53 78° 76° (ENE) 02:01:42 437.505
ITUPSAT 1 06 Jul 01:58:13 02:03:00 80° 76° (ENE) 02:07:49 437.325
Cosmos 2491 06 Jul 02:01:41 02:09:47 42° 75° (ENE) 02:17:56 435.465 / 435.565
Oscar 19 06 Jul 02:02:53 02:07:46 45° 99° (E) 02:12:41 437.125/150
TISAT 1 06 Jul 02:06:54 02:07:59 11° 270° (W) 02:08:46 437.305
ITAMSAT 1 06 Jul 02:19:27 02:22:30 16° 91° (E) 02:25:47 435.822/435.867
Gurwin Techsat 1B 06 Jul 02:22:21 02:25:58 19° 92° (E) 02:29:47 435.225
KKS-1 06 Jul 02:25:26 02:28:58 24° 71° (ENE) 02:32:36 437.445
AIST 1 06 Jul 02:28:51 02:32:43 31° 77° (ENE) 02:36:35
YUBILEINY 06 Jul 02:31:49 02:38:55 31° 86° (E) 02:46:17 435.215
SO-50 06 Jul 02:40:00 02:44:33 37° 246° (WSW) 02:48:57 436.795
STARS 06 Jul 03:12:33 03:16:47 49° 74° (ENE) 03:21:03 437.465
BEESAT 06 Jul 03:16:24 03:19:12 15° 269° (W) 03:21:48 436.000
RS-15 06 Jul 03:18:07 03:28:49 58° 307° (NW) 03:39:49 29.354- 29.394
Oscar 19 06 Jul 03:43:14 03:46:50 19° 293° (WNW) 03:50:14 437.125/150
ITAMSAT 1 06 Jul 03:57:18 04:02:22 51° 287° (WNW) 04:07:22 435.822/435.867
Cosmos 2491 06 Jul 03:58:44 04:06:35 37° 272° (W) 04:14:11 435.465 / 435.565
Gurwin Techsat 1B 06 Jul 04:01:09 04:06:13 45° 288° (WNW) 04:11:13 435.225
KKS-1 06 Jul 04:01:47 04:05:32 26° 264° (W) 04:09:12 437.445
AIST 1 06 Jul 04:07:16 04:10:08 17° 271° (W) 04:12:49
JAS-2 06 Jul 04:20:34 04:27:26 74° 102° (ESE) 04:35:02 435.910
YUBILEINY 06 Jul 04:27:03 04:35:26 50° 283° (WNW) 04:43:46 435.215
MOZHAYETS 4 06 Jul 04:30:32 04:34:59 55° 75° (ENE) 04:39:30
AO-7 06 Jul 04:43:25 04:51:37 58° 102° (ESE) 04:59:48 29.400- 29.500
STARS 06 Jul 04:51:43 04:53:34 12° 269° (W) 04:55:09 437.465
HORYU 2 06 Jul 04:56:31 05:01:01 81° 282° (WNW) 05:05:30 437.375
Cosmos 2504 06 Jul 04:57:31 05:02:46 24° 87° (E) 05:08:13 435.465 / 435.565
VERMONT LUNAR 06 Jul 05:16:12 05:16:55 11° 143° (SE) 05:17:44 437.305
RS-15 06 Jul 05:37:28 05:44:36 18° 336° (NNW) 05:51:31 29.354- 29.394
BEESAT 3 06 Jul 06:07:10 06:10:17 22° 112° (ESE) 06:13:32 437.485
JAS-2 06 Jul 06:07:19 06:12:04 19° 294° (WNW) 06:16:47 435.910
PRISM 06 Jul 06:08:22 06:10:11 13° 67° (ENE) 06:12:12 437.425
MOZHAYETS 4 06 Jul 06:10:57 06:12:38 11° 271° (W) 06:14:01
BEESAT 2 06 Jul 06:21:44 06:25:05 25° 112° (ESE) 06:28:32 435.950
ISS 06 Jul 06:35:02 06:37:38 23° 131° (SE) 06:40:19 145.825
AO-7 06 Jul 06:37:01 06:44:01 30° 299° (WNW) 06:50:46 29.400- 29.500
O/OREOS (USA 219) 06 Jul 06:38:53 06:42:42 29° 104° (ESE) 06:46:36 437.305
CUBESAT XI-V 06 Jul 06:38:58 06:43:40 76° 258° (WSW) 06:48:25 437.345
STRAND 1 06 Jul 06:40:23 06:45:04 38° 72° (ENE) 06:49:51 437.568
CUTE-I 06 Jul 06:45:44 06:50:40 38° 97° (E) 06:55:37 437.470
Cosmos 2504 06 Jul 06:48:00 06:54:38 46° 282° (WNW) 07:01:13 435.465 / 435.565
VERMONT LUNAR 06 Jul 06:50:22 06:53:28 72° 153° (SSE) 06:56:33 437.305
CUSAT 1 06 Jul 06:50:34 06:54:53 20° 95° (E) 06:58:46 437.405
Cubesat XI-IV 06 Jul 07:20:12 07:25:35 84° 101° (E) 07:30:57 437.490
PHONESAT 2.4 06 Jul 07:34:46 07:37:44 28° 148° (SSE) 07:40:45 2401.200-2431.200
PRISM 06 Jul 07:41:16 07:45:16 45° 261° (W) 07:49:18 437.425
BEESAT 3 06 Jul 07:44:38 07:48:08 27° 307° (NW) 07:51:38 437.485
AIST 2 06 Jul 07:51:46 07:55:57 63° 117° (ESE) 08:00:12 435.215
RS-15 06 Jul 07:58:43 08:03:44 14° 12° (NNE) 08:09:07 29.354- 29.394
BEESAT 2 06 Jul 07:59:41 08:03:06 24° 308° (NW) 08:06:28 435.950
DANDE 06 Jul 08:04:43 08:12:07 73° 98° (E) 08:17:48 436.750
AUBIESAT-1 06 Jul 08:06:28 08:08:53 19° 66° (ENE) 08:11:27 437.475
ISS 06 Jul 08:11:07 08:13:58 27° 325° (NW) 08:16:48 145.825
O/OREOS (USA 219) 06 Jul 08:18:40 08:22:10 21° 299° (WNW) 08:25:34 437.305
STRAND 1 06 Jul 08:20:28 08:24:25 21° 266° (W) 08:28:15 437.568
CUTE-I 06 Jul 08:26:18 08:30:33 24° 292° (WNW) 08:34:39 437.470
VERMONT LUNAR 06 Jul 08:27:38 08:30:30 33° 351° (N) 08:33:24 437.305
CUSAT 1 06 Jul 08:31:09 08:37:29 47° 280° (W) 08:42:20 437.405
GOMX 1 06 Jul 08:32:41 08:36:06 25° 95° (E) 08:39:35 467.674
M-CUBED/EXP-1 PRIME 06 Jul 08:41:42 08:44:59 78° 73° (ENE) 08:48:23 437.505
CUTE 1.7 + AOD 2 06 Jul 08:47:48 08:50:57 20° 93° (E) 08:54:14 437.475
HO-68 06 Jul 08:48:39 08:54:49 32° 96° (E) 09:01:07 435.675
CANX-2 06 Jul 08:51:10 08:54:42 25° 95° (E) 08:58:18 2200.000
GONETS M04 06 Jul 09:02:52 09:11:31 67° 93° (E) 09:20:11
Cubesat XI-IV 06 Jul 09:03:27 09:05:03 11° 297° (WNW) 09:06:18 437.490
BRITE-PL 06 Jul 09:06:47 09:11:00 65° 284° (WNW) 09:15:05 437.365/2234.400
DOVE 4 06 Jul 09:06:56 09:10:47 38° 98° (E) 09:14:44 437.250
PHONESAT 2.4 06 Jul 09:12:14 09:15:38 58° 342° (NNW) 09:19:02 2401.200-2431.200
SEEDS 06 Jul 09:32:07 09:36:19 56° 100° (E) 09:40:31 437.485
AIST 2 06 Jul 09:32:58 09:35:00 13° 314° (NW) 09:36:52 435.215
CINEMA 3 06 Jul 09:38:07 09:42:01 38° 98° (E) 09:46:04 145.822/145.860
AAUSAT CUBESAT 2 06 Jul 09:38:21 09:42:23 43° 99° (E) 09:46:24 437.432
AUBIESAT-1 06 Jul 09:41:20 09:43:38 17° 262° (W) 09:45:54 437.475
DELFI C3 06 Jul 09:42:09 09:43:48 12° 91° (E) 09:45:41 145.870
ANTELSAT 06 Jul 09:45:40 09:47:58 15° 69° (ENE) 09:50:27 437.575/2403.000
Cosmos 2499 06 Jul 09:51:08 09:56:11 22° 86° (E) 10:01:32 435.465 / 435.565
DANDE 06 Jul 09:51:25 09:55:25 15° 287° (WNW) 09:58:35 436.750
TIGRISAT 06 Jul 09:56:25 09:59:22 19° 70° (ENE) 10:02:25 435.000
VERMONT LUNAR 06 Jul 10:04:59 10:07:50 31° 8° (N) 10:10:42 437.305
COMPASS 1 06 Jul 10:06:05 10:10:19 70° 283° (WNW) 10:14:31 437.405
ZACube-1 06 Jul 10:07:08 10:10:27 22° 95° (E) 10:13:55 437.345
RS-15 06 Jul 10:10:50 10:21:13 37° 44° (NE) 10:32:13 29.354- 29.394
Oscar 11 06 Jul 10:10:57 10:15:07 44° 99° (E) 10:19:17 145.826/435.025
GOMX 1 06 Jul 10:11:02 10:14:10 20° 289° (WNW) 10:17:11 467.674
CUBEBUG 2 06 Jul 10:13:01 10:17:06 45° 99° (E) 10:21:18 437.445
QB50P2 06 Jul 10:20:19 10:22:39 15° 69° (ENE) 10:25:09 145.880/145.840
POPSAT HIP 1 06 Jul 10:20:37 10:22:51 15° 69° (ENE) 10:25:16 437.405
CUTE 1.7 + AOD 2 06 Jul 10:23:12 10:26:53 28° 288° (WNW) 10:30:30 437.475
CANX-2 06 Jul 10:27:06 10:30:32 23° 289° (WNW) 10:33:51 2200.000
UNISAT 6 06 Jul 10:35:38 10:39:50 57° 75° (ENE) 10:44:02 437.425
HO-68 06 Jul 10:35:59 10:42:41 43° 292° (WNW) 10:49:17 435.675
FUNcube-1 06 Jul 10:41:41 10:45:53 58° 101° (E) 10:50:10 145.935
DOVE 4 06 Jul 10:46:04 10:48:19 14° 291° (WNW) 10:50:24 437.250
PHONESAT 2.4 06 Jul 10:50:52 10:53:59 32° 359° (N) 10:57:08 2401.200-2431.200
QB50P1 06 Jul 10:57:31 11:01:28 39° 74° (ENE) 11:05:27 145.935-145.965
UWE-3 06 Jul 10:59:46 11:03:58 61° 284° (WNW) 11:08:15 435.000/436.395/437.385
GONETS M04 06 Jul 11:02:23 11:09:10 23° 292° (WNW) 11:15:34
50 SAT 06 Jul 11:08:31 11:11:32 22° 95° (E) 11:14:39 437.505
SEEDS 06 Jul 11:10:30 11:11:41 11° 293° (WNW) 11:12:36 437.485
NANOSAT C BR1 06 Jul 11:10:41 11:14:49 57° 75° (ENE) 11:18:59 145.865
DELFI C3 06 Jul 11:15:17 11:19:08 40° 286° (WNW) 11:22:56 145.870
AAUSAT CUBESAT 2 06 Jul 11:15:28 11:17:38 14° 291° (WNW) 11:19:37 437.432
CINEMA 3 06 Jul 11:16:34 11:18:59 15° 291° (WNW) 11:21:16 145.822/145.860
DUCHIFAT 1 06 Jul 11:16:50 11:21:02 66° 76° (ENE) 11:25:14 145.980
ESTCUBE 1 06 Jul 11:17:11 11:19:56 16° 92° (E) 11:22:51 437.505/2401.250
ANTELSAT 06 Jul 11:20:26 11:24:29 39° 262° (W) 11:28:29 437.575/2403.000
POLYITAN 1 06 Jul 11:24:34 11:28:49 88° 79° (ENE) 11:33:04 437.675
BUGSAT 1 06 Jul 11:24:40 11:28:46 52° 75° (ENE) 11:32:52 437.445
VELOX 1 06 Jul 11:25:22 11:29:16 30° 97° (E) 11:33:10 145.980
DX 1 06 Jul 11:26:35 11:30:54 62° 102° (ESE) 11:35:11 434.975-435.025
TIGRISAT 06 Jul 11:32:08 11:35:57 30° 264° (W) 11:39:40 435.000
VERMONT LUNAR 06 Jul 11:41:48 11:44:56 85° 204° (SSW) 11:48:05 437.305
Cosmos 2499 06 Jul 11:42:04 11:48:54 51° 282° (WNW) 11:55:47 435.465 / 435.565
ZACube-1 06 Jul 11:43:14 11:46:47 25° 288° (WNW) 11:50:17 437.345
UKube-1 06 Jul 11:44:18 11:48:39 87° 284° (WNW) 11:52:57 .
HUMSAT D 06 Jul 11:44:29 11:48:36 58° 284° (WNW) 11:52:44 437.325/437.525
Oscar 11 06 Jul 11:48:36 11:50:57 14° 292° (WNW) 11:53:05 145.826/435.025
CUBEBUG 2 06 Jul 11:51:24 11:53:29 13° 291° (WNW) 11:55:24 437.445
QB50P2 06 Jul 11:54:15 11:58:15 39° 262° (W) 12:02:13 145.880/145.840
POPSAT HIP 1 06 Jul 11:54:24 11:58:25 40° 262° (W) 12:02:25 437.405
AISAT 06 Jul 12:12:48 12:17:11 68° 285° (WNW) 12:21:32 437.250
FUNcube-1 06 Jul 12:20:50 12:21:49 10° 292° (WNW) 12:22:32 145.935
RS-15 06 Jul 12:22:54 12:34:37 68° 246° (WSW) 12:46:39 29.354- 29.394
CUBEBUG 1 06 Jul 12:23:58 12:28:20 83° 102° (ESE) 12:32:39 437.445
PHONESAT 2.4 06 Jul 12:29:02 12:32:24 50° 16° (NNE) 12:35:47 2401.200-2431.200
QB50P1 06 Jul 12:35:12 12:37:33 14° 268° (W) 12:39:41 145.935-145.965
50 SAT 06 Jul 12:42:59 12:46:05 22° 288° (WNW) 12:49:05 437.505
YUBILEINY 06 Jul 12:48:33 12:50:34 11° 59° (ENE) 12:53:25 435.215
ESTCUBE 1 06 Jul 12:52:45 12:56:59 39° 287° (WNW) 13:01:10 437.505/2401.250
VELOX 1 06 Jul 13:02:22 13:05:38 20° 291° (WNW) 13:08:46 145.980
BUGSAT 1 06 Jul 13:03:42 13:04:35 10° 270° (W) 13:05:10 437.445
ISS 06 Jul 13:05:54 13:06:57 11° 24° (NNE) 13:08:04 145.825
DX 1 06 Jul 13:06:00 13:06:40 10° 294° (WNW) 13:07:04 434.975-435.025
Oscar 19 06 Jul 13:16:33 13:21:27 47° 73° (ENE) 13:26:22 437.125/150
SPROUT 06 Jul 13:17:44 13:22:01 85° 286° (WNW) 13:26:17 437.525
VERMONT LUNAR 06 Jul 13:19:52 13:21:32 13° 216° (SW) 13:23:08 437.305
ITAMSAT 1 06 Jul 13:34:25 13:37:55 19° 67° (ENE) 13:41:36 435.822/435.867
Gurwin Techsat 1B 06 Jul 13:40:23 13:44:23 23° 68° (ENE) 13:48:33 435.225
BEESAT 06 Jul 13:41:16 13:44:02 16° 92° (E) 13:47:01 436.000
TISAT 1 06 Jul 13:50:54 13:54:59 52° 285° (WNW) 13:59:02 437.305
AO-7 06 Jul 13:54:02 13:55:23 11° 51° (NE) 13:57:22 29.400- 29.500
SWISSCUBE 06 Jul 13:56:17 14:00:14 25° 95° (E) 14:04:13 437.505
ITUPSAT 1 06 Jul 14:02:38 14:06:38 27° 95° (E) 14:10:43 437.325
PHONESAT 2.4 06 Jul 14:07:09 14:10:22 36° 210° (SSW) 14:13:36 2401.200-2431.200
PCSat 06 Jul 14:18:10 14:21:47 19° 107° (ESE) 14:25:36 145.827
JAS-2 06 Jul 14:32:48 14:36:01 17° 65° (ENE) 14:39:31 435.910
ISS 06 Jul 14:40:36 14:43:51 77° 44° (NE) 14:47:04 145.825
YUBILEINY 06 Jul 14:40:36 14:49:22 72° 81° (E) 14:58:09 435.215
RS-15 06 Jul 14:41:21 14:45:36 12° 260° (W) 14:48:26 29.354- 29.394
AIST 1 06 Jul 14:55:18 14:58:39 22° 90° (E) 15:02:08
Oscar 19 06 Jul 14:57:43 15:01:06 17° 268° (W) 15:04:15 437.125/150
Cosmos 2491 06 Jul 14:58:17 15:06:43 54° 91° (E) 15:15:14 435.465 / 435.565
STARS 06 Jul 15:07:43 15:09:02 11° 90° (E) 15:10:37 437.465
ITAMSAT 1 06 Jul 15:12:05 15:17:06 46° 261° (W) 15:22:07 435.822/435.867
SO-50 06 Jul 15:12:47 15:15:12 14° 109° (ESE) 15:17:53 436.795
BEESAT 06 Jul 15:17:34 15:22:09 45° 287° (WNW) 15:26:41 436.000
Gurwin Techsat 1B 06 Jul 15:19:13 15:24:10 39° 262° (W) 15:29:06 435.225
